LUSAT (LO-19)

Last updated on Thu Mar 05 2026 00:03:21 GMT+0000 (Coordinated Universal Time)

1 20442U 90005G 26063.03935948 .00000219 00000+0 94890-4 0 9999 2 20442 98.8938 81.9063 0012121 150.1844 210.0033 14.34085341887326
UTC large
Height (km)
Speed (km/s)
/
Latitude / Longitude
Inclination (degrees)
Orbital Period (minutes)
Azimuth
Elevation
Range (km)
Doppler Factor

Next 0 passes for location: London (51.5072 / 0.1276)

Sorry there are no passes over London.